Temperature
15 15 16 16 16 16 16 17 17 17 17 17 17 18 18 18 18 18 18 18 17 17 18 18 18 18 18 18 18 18 18 18 18 18 18 18 18 18 18 18 17 17 17
15 15 15 16 16 16 16 16 16 17 17 17 17 17 17 18 18 18 18 18 17 18 18 18 18 18 18 18 18 18 18 18 18 18 18 18 18 18 18 18 17 17 17
15 15 15 15 15 16 16 16 16 16 17 17 17 17 17 17 17 18 18 18 18 18 18 18 18 18 18 18 18 18 18 18 18 18 18 18 18 18 18 18 17 17 17
14 14 15 15 15 15 16 16 16 16 16 17 17 17 17 17 17 17 17 17 17 18 18 18 18 18 18 18 18 18 18 18 18 18 18 18 18 18 18 18 17 17 17
14 14 14 15 15 15 15 15 16 16 16 16 16 17 17 17 17 17 17 17 17 18 18 18 18 18 18 18 18 18 18 18 18 18 18 18 18 18 18 18 18 17 17
14 14 14 14 15 15 15 15 15 15 16 16 16 16 17 17 17 17 17 17 17 18 18 18 18 18 18 18 18 18 18 18 18 18 18 18 17 17 17 18 17 17 17
13 14 14 14 14 14 15 15 15 15 15 16 16 16 16 17 17 17 17 17 17 17 18 18 18 18 18 18 18 18 18 18 18 18 18 18 17 17 17 17 17 17 17
13 13 13 14 14 14 14 14 15 15 15 15 15 15 16 17 17 17 17 17 17 17 17 18 18 18 18 18 18 18 18 18 18 18 18 18 17 17 17 17 17 17 17
13 13 13 13 13 13 14 14 14 14 15 15 15 15 15 16 16 17 17 17 17 17 17 17 18 18 18 18 18 18 18 18 18 18 18 18 17 17 17 17 17 17 17
12 13 13 13 13 13 13 13 13 14 14 14 14 14 15 15 15 16 17 17 17 17 17 17 17 18 18 18 18 18 18 18 18 18 17 17 17 17 17 17 17 17 17
12 12 12 13 13 13 13 13 13 13 13 14 14 14 14 14 15 15 15 16 17 17 17 17 17 17 17 17 18 18 18 18 18 18 17 17 17 17 17 17 17 17 17
12 12 12 12 12 13 13 13 13 13 13 13 13 14 14 14 14 14 15 15 16 17 17 17 17 17 17 17 17 17 18 18 17 17 17 17 17 17 17 17 17 17 17
12 12 12 12 12 12 12 12 12 13 13 13 13 13 13 13 14 14 14 14 15 16 16 17 17 17 17 17 17 17 17 17 17 17 17 17 17 17 17 17 17 17 17
12 12 12 12 12 12 12 12 12 12 12 13 13 13 13 13 13 13 14 14 14 15 15 16 17 17 17 17 17 17 17 17 17 17 17 17 17 17 17 17 17 17 17
12 12 12 12 12 12 12 12 12 12 12 12 12 13 13 13 13 13 13 13 13 13 14 16 16 16 16 16 16 17 17 17 17 17 17 17 17 17 17 17 17 17 16
12 12 12 12 12 12 11 11 12 12 12 12 12 12 12 13 13 13 13 13 13 13 13 14 15 15 16 16 16 16 16 16 17 17 17 17 17 17 17 17 17 16 16
12 12 11 11 11 11 11 11 11 11 11 12 12 12 12 12 13 13 13 13 13 13 13 14 14 15 15 15 16 16 16 16 16 16 16 17 17 17 17 16 16 16 16
12 11 11 11 11 11 11 11 11 11 11 11 12 12 12 12 12 12 12 13 13 13 13 13 14 14 15 15 15 15 16 16 16 16 16 16 16 16 16 16 16 16 16
12 12 11 11 11 11 11 11 11 11 11 11 11 12 12 12 12 12 12 12 12 13 12 13 13 14 14 14 15 15 15 15 15 16 16 16 16 16 16 16 16 16 16
12 12 12 11 11 11 11 11 11 11 11 11 11 11 12 12 12 12 12 12 12 12 12 12 13 13 14 14 14 14 15 15 15 15 15 15 15 15 16 16 16 16 16
12 12 12 12 11 11 11 11 11 11 11 11 12 11 11 11 11 11 11 12 12 12 12 12 13 13 13 13 14 14 14 14 15 15 15 15 15 15 15 15 15 15 15
13 13 12 12 12 11 11 11 11 11 11 11 12 12 12 12 11 11 11 11 11 12 12 12 12 12 13 13 13 13 13 14 14 15 14 15 15 15 15 15 15 15 15
13 13 13 12 12 12 11 11 11 11 11 11 11 11 12 11 11 11 11 11 11 11 11 11 12 12 12 13 13 13 13 13 13 14 14 14 15 15 15 15 15 15 15
14 14 13 13 12 12 12 12 11 11 11 11 11 11 11 11 11 11 11 12 12 12 12 12 12 12 12 12 12 12 12 12 13 13 13 13 14 14 15 15 15 15 15
14 14 14 13 13 13 12 12 12 12 11 11 11 11 11 11 11 11 11 12 12 12 12 12 12 12 12 12 12 12 12 12 12 13 13 13 14 14 14 14 14 14 14
15 14 14 14 13 13 13 12 12 12 12 12 12 12 11 11 11 11 11 11 12 12 12 12 12 12 12 12 12 12 12 12 12 12 13 13 13 13 13 14 14 14 14
Wind_Speed
3 3 3 3 4 4 3 3 3 4 4 4 4 3 2 3 5 6 9 16 19 17 16 16 14 13 11 11 10 10 10 10 11 12 13 13 14 14 13 13 12 12 12
2 2 3 3 3 3 4 4 4 4 4 3 3 3 3 3 4 5 7 12 18 18 17 17 16 14 13 12 11 11 11 11 11 12 13 14 14 14 13 13 13 12 11
3 2 2 2 3 3 3 3 4 3 3 4 4 4 3 3 3 4 6 8 12 16 18 17 16 16 15 14 13 12 12 12 12 13 14 14 15 15 14 13 13 12 12
6 3 3 3 3 2 1 2 3 3 4 4 3 3 3 2 3 3 5 7 9 11 14 17 17 17 16 15 14 14 13 13 14 14 15 15 15 15 15 14 13 12 12
8 4 3 3 3 1 1 2 2 3 3 4 4 4 3 3 3 4 4 6 8 9 10 14 18 18 18 16 16 15 15 15 15 15 15 16 16 16 15 15 14 13 12
8 5 3 4 4 2 2 2 1 2 2 3 4 4 4 4 4 4 5 4 5 8 11 11 13 16 19 18 17 17 17 16 16 16 17 17 17 17 16 16 15 14 13
7 5 5 5 5 3 3 2 1 1 1 1 1 2 3 4 5 5 4 4 5 6 8 10 12 12 14 19 19 18 18 18 18 18 18 18 18 18 17 17 16 15 14
6 5 5 5 5 4 5 4 2 1 1 0 1 0 2 3 2 4 5 5 5 4 5 9 10 12 13 13 16 20 20 19 19 19 20 19 19 19 18 18 17 16 15
5 5 5 5 5 4 4 4 2 1 1 1 1 2 1 3 3 2 3 4 5 5 5 5 8 12 14 13 14 19 21 20 21 21 21 21 21 20 20 19 18 18 17
4 5 5 5 5 3 4 4 3 1 0 1 1 1 2 2 1 3 3 2 4 5 6 6 7 9 13 13 14 18 22 22 23 22 22 22 22 22 21 20 20 19 18
4 4 4 4 5 4 4 4 4 3 1 0 1 1 1 1 2 2 3 3 2 3 5 6 5 6 11 12 13 17 21 23 24 24 24 23 23 23 22 22 21 20 19
4 5 4 5 5 4 4 4 3 3 2 1 1 1 1 1 1 2 3 3 4 4 4 5 6 6 9 12 16 19 21 24 25 25 24 24 24 24 24 23 23 22 21
3 5 5 5 4 4 4 3 3 3 3 3 2 2 2 3 3 3 3 3 3 3 3 3 6 6 8 11 14 18 20 23 24 24 24 24 25 25 25 25 24 23 23
3 4 5 5 5 5 5 4 3 3 3 4 4 3 2 3 3 3 3 3 3 3 3 5 3 6 6 9 13 17 16 22 24 25 25 24 25 25 25 25 25 25 24
3 4 4 5 5 4 4 4 4 4 4 4 4 4 3 3 3 3 3 4 4 3 4 4 4 4 5 7 12 13 14 19 23 24 25 25 25 25 26 25 25 25 24
4 4 4 4 4 4 4 4 3 4 5 5 4 5 4 3 3 3 3 3 4 4 4 3 4 3 3 4 9 11 14 18 22 23 24 24 25 26 26 25 25 24 24
3 3 3 3 3 3 3 3 4 5 6 6 6 6 6 5 4 3 2 2 3 4 6 4 3 3 4 5 4 7 10 11 14 22 23 24 24 24 25 25 25 25 24
2 3 2 3 2 2 2 3 4 4 5 6 7 6 7 6 5 4 2 3 3 4 4 6 4 3 4 5 5 5 6 9 10 17 22 24 25 25 25 25 25 25 24
2 2 2 2 2 2 2 2 2 4 5 6 6 6 6 6 5 4 4 3 3 3 3 4 4 3 3 3 3 4 5 5 7 11 17 21 23 24 24 24 25 25 25
1 2 2 2 2 2 2 2 3 4 5 6 6 6 6 5 5 5 4 4 3 3 3 3 4 3 3 3 3 4 4 4 6 6 9 13 18 21 23 23 24 25 26
3 3 3 4 3 3 4 4 4 5 6 7 7 7 7 8 8 5 4 4 3 3 3 3 4 3 3 3 3 3 4 4 4 5 5 6 8 9 12 19 23 24 25
4 3 4 4 5 4 6 7 5 4 5 6 7 7 7 6 7 8 8 6 4 4 4 4 4 5 5 4 4 4 3 3 4 4 5 6 6 8 9 11 18 23 25
4 5 5 5 6 8 10 9 8 4 5 6 6 6 6 6 6 5 7 8 7 7 6 5 6 7 5 5 4 5 5 5 5 4 4 5 5 8 7 10 18 22 25
5 5 6 6 6 8 10 10 8 4 4 6 6 6 5 6 6 6 5 5 6 6 6 5 6 7 7 7 6 6 6 5 4 3 4 5 4 5 5 7 16 21 23
6 6 6 7 7 9 11 10 8 3 4 6 6 5 5 5 8 8 4 6 7 7 7 8 9 10 11 12 8 5 5 5 5 4 4 4 4 4 4 6 9 18 22
7 7 7 7 8 9 11 11 9 3 4 5 5 6 7 7 9 9 5 5 8 8 7 8 8 8 7 8 9 8 7 6 4 4 5 5 4 3 3 3 5 7 12
Wind_Direction
284 280 267 255 248 235 221 217 216 222 227 223 226 223 231 251 254 235 229 220 208 199 192 189 188 187 186 184 180 176 174 171 169 168 165 162 158 154 150 149 147 144 140
313 302 293 273 257 240 229 219 218 219 226 225 227 214 229 245 260 239 224 220 211 203 196 193 192 191 190 188 185 180 178 176 174 173 170 167 163 159 157 157 154 152 149
351 335 335 309 282 262 235 226 229 219 224 224 223 220 220 229 244 237 222 218 215 210 204 199 196 195 195 193 191 187 184 182 180 177 175 173 169 166 164 164 160 159 156
7 359 350 328 310 303 258 234 224 227 231 230 231 232 222 224 237 234 225 222 217 214 213 208 201 199 199 199 196 194 190 186 185 183 181 177 174 172 170 169 167 166 164
15 12 353 333 336 331 311 280 229 214 228 239 242 237 224 218 222 231 227 223 219 217 214 216 209 204 203 203 202 200 195 192 190 188 185 182 179 178 178 177 175 173 171
16 17 4 352 352 0 347 325 273 228 225 236 256 255 239 224 209 214 220 223 220 223 217 215 213 212 210 206 206 205 201 198 195 194 191 189 186 185 185 185 183 181 181
16 21 13 4 4 7 354 341 311 269 260 223 252 291 279 241 225 218 209 213 219 223 217 214 211 209 211 212 210 208 207 203 200 198 196 194 192 191 191 191 191 190 189
15 23 18 9 7 9 9 4 13 9 325 155 163 233 308 312 261 223 203 210 217 212 214 217 212 209 207 206 212 211 211 208 205 203 201 198 197 196 196 197 197 196 196
10 16 13 13 12 20 7 356 9 36 325 301 214 175 198 259 309 308 234 225 214 209 214 209 211 210 209 207 209 213 213 211 209 208 206 203 201 200 200 201 202 202 201
1 9 12 11 9 11 6 351 13 359 50 305 304 242 215 198 243 318 316 265 232 221 218 220 213 209 210 208 211 211 212 212 212 212 210 208 206 205 205 205 205 205 205
349 353 2 5 2 356 353 354 357 1 357 272 279 298 305 250 203 216 279 305 293 244 223 220 215 210 210 209 212 216 213 212 214 214 214 212 210 209 209 209 209 209 210
332 337 345 352 349 349 348 348 352 356 354 338 299 254 219 235 234 218 243 268 275 268 239 219 215 212 211 211 216 218 214 213 215 216 216 216 214 213 212 212 212 213 213
318 320 335 337 336 334 341 355 5 356 351 350 322 281 247 235 224 214 227 252 264 276 271 242 221 213 217 215 219 219 217 215 216 217 217 217 216 215 215 214 214 214 214
284 301 326 336 338 342 356 6 10 354 357 347 335 317 285 267 240 217 208 212 259 277 266 259 250 219 218 215 219 215 218 216 215 216 216 217 217 216 216 216 217 216 216
298 322 336 340 347 360 8 11 9 358 356 351 338 332 315 287 273 247 225 203 208 250 269 255 249 239 221 220 219 214 216 215 214 215 216 216 217 217 217 216 218 218 216
322 337 344 346 354 5 10 16 3 355 0 346 339 341 331 306 298 279 245 224 210 214 248 262 250 263 251 238 226 218 219 218 215 215 217 218 219 218 217 217 216 216 213
322 335 340 350 359 3 4 12 358 359 357 343 341 341 329 317 306 300 280 243 224 213 244 266 256 257 244 246 239 225 225 222 221 219 219 220 222 221 218 217 216 214 212
325 339 358 5 357 357 356 2 351 356 349 336 330 332 329 333 320 303 290 268 249 230 231 260 270 263 250 244 237 233 227 224 223 223 220 221 222 222 220 217 215 212 211
321 346 5 350 331 323 327 330 328 330 327 319 316 316 314 324 319 307 296 279 268 264 239 249 267 261 262 254 247 243 233 228 225 227 222 223 223 223 220 216 215 212 210
267 291 287 285 283 275 273 286 304 313 317 315 312 307 303 299 291 291 287 276 275 281 273 264 269 270 262 259 234 237 240 225 226 224 222 221 223 224 222 218 216 214 211
248 258 271 283 285 269 249 254 281 297 309 314 315 312 306 306 303 299 289 269 261 268 278 273 274 274 269 258 244 235 238 237 233 216 214 217 213 218 220 223 221 218 213
261 265 267 271 277 273 271 266 267 280 297 305 310 313 313 313 328 333 327 312 272 251 257 262 266 264 265 255 251 246 240 235 247 214 205 222 206 218 219 216 218 216 213
250 259 263 260 263 269 274 276 276 269 280 291 297 305 315 320 329 321 319 320 313 296 269 249 254 257 259 249 244 248 238 233 238 221 200 231 212 221 221 220 216 212 211
240 246 253 254 257 266 268 268 272 267 273 284 287 290 294 302 306 311 309 312 306 301 291 274 250 257 259 257 241 240 243 250 256 240 198 224 217 223 223 219 217 213 209
241 241 245 247 251 265 267 262 258 246 270 284 289 289 290 290 299 313 306 304 305 302 296 288 275 272 271 271 256 236 232 235 252 243 204 209 213 212 220 228 219 211 209
240 245 250 246 245 256 264 260 246 218 256 276 288 288 290 290 297 307 293 289 294 295 301 306 302 296 283 279 265 232 223 228 236 243 210 198 201 187 224 227 216 209 210
Height
1508 1508 1508 1508 1508 1509 1510 1511 1511 1512 1514 1515 1517 1518 1519 1520 1521 1523 1524 1526 1527 1529 1530 1530 1531 1532 1533 1534 1535 1537 1538 1540 1542 1543 1545 1546 1548 1549 1550 1552 1553 1554 1555
1506 1505 1505 1505 1505 1506 1506 1507 1508 1509 1510 1512 1514 1515 1516 1517 1518 1520 1522 1524 1525 1527 1528 1529 1530 1531 1532 1533 1534 1536 1538 1539 1541 1543 1544 1546 1548 1549 1550 1551 1553 1554 1555
1505 1504 1503 1503 1503 1503 1504 1504 1505 1506 1507 1509 1511 1512 1513 1514 1516 1517 1519 1521 1523 1524 1526 1527 1528 1530 1531 1532 1533 1535 1536 1538 1540 1542 1544 1545 1547 1549 1550 1551 1553 1554 1555
1503 1502 1501 1501 1500 1500 1501 1501 1502 1503 1504 1506 1507 1508 1509 1511 1513 1514 1516 1518 1520 1522 1524 1525 1527 1528 1529 1530 1532 1533 1535 1537 1539 1541 1543 1544 1546 1548 1550 1551 1552 1554 1555
1501 1500 1499 1499 1498 1498 1498 1499 1499 1500 1501 1502 1503 1505 1506 1508 1510 1511 1513 1515 1518 1519 1521 1523 1525 1526 1527 1529 1530 1531 1533 1535 1537 1539 1541 1543 1545 1547 1549 1550 1552 1553 1555
1500 1499 1498 1497 1496 1496 1496 1496 1497 1498 1498 1499 1500 1501 1503 1504 1506 1508 1510 1512 1514 1516 1518 1520 1522 1524 1525 1527 1528 1529 1531 1533 1535 1537 1539 1541 1543 1545 1547 1549 1551 1552 1554
1500 1498 1497 1496 1495 1494 1494 1494 1495 1495 1496 1497 1498 1498 1500 1501 1502 1504 1506 1508 1510 1513 1515 1517 1519 1521 1523 1524 1526 1527 1529 1531 1533 1535 1537 1539 1541 1543 1545 1547 1549 1551 1552
1500 1498 1496 1495 1494 1493 1493 1493 1493 1493 1494 1495 1496 1497 1497 1499 1499 1501 1502 1504 1506 1509 1511 1513 1516 1518 1520 1522 1523 1524 1526 1528 1530 1532 1534 1537 1539 1541 1543 1545 1547 1549 1550
1500 1498 1496 1495 1494 1493 1492 1492 1492 1492 1493 1493 1494 1496 1496 1496 1496 1498 1499 1500 1502 1505 1507 1509 1512 1514 1516 1518 1520 1522 1523 1525 1527 1529 1531 1533 1536 1538 1540 1542 1544 1546 1548
1501 1499 1497 1495 1493 1492 1491 1491 1490 1491 1491 1492 1492 1494 1495 1495 1496 1496 1497 1498 1499 1501 1503 1505 1507 1509 1512 1514 1516 1518 1520 1522 1524 1525 1527 1530 1532 1535 1537 1539 1541 1543 1545
1501 1499 1497 1495 1493 1492 1491 1490 1490 1489 1489 1490 1490 1491 1492 1493 1494 1495 1494 1495 1496 1497 1499 1501 1503 1505 1507 1509 1512 1514 1517 1518 1520 1522 1524 1526 1528 1531 1533 1535 1538 1540 1542
1501 1499 1497 1495 1493 1492 1491 1490 1489 1489 1488 1488 1489 1489 1490 1490 1491 1492 1492 1492 1492 1494 1495 1496 1498 1500 1502 1504 1507 1509 1512 1514 1516 1518 1520 1522 1524 1527 1529 1531 1534 1536 1538
1500 1499 1497 1495 1494 1492 1491 1489 1488 1488 1487 1487 1487 1487 1487 1488 1489 1489 1489 1489 1489 1489 1490 1492 1493 1495 1497 1500 1502 1504 1506 1509 1511 1513 1515 1518 1520 1522 1525 1527 1529 1532 1534
1500 1499 1497 1495 1494 1492 1490 1489 1488 1487 1486 1485 1485 1485 1485 1485 1486 1486 1486 1486 1486 1486 1486 1487 1489 1490 1492 1494 1496 1499 1500 1503 1506 1508 1510 1513 1515 1517 1520 1522 1525 1527 1529
1500 1499 1497 1495 1493 1492 1490 1488 1487 1485 1484 1483 1483 1482 1482 1482 1482 1483 1483 1483 1484 1483 1482 1483 1484 1486 1487 1489 1491 1492 1494 1496 1499 1502 1505 1507 1510 1512 1514 1517 1519 1522 1525
1500 1498 1496 1494 1493 1491 1489 1488 1486 1484 1483 1482 1481 1480 1480 1479 1479 1479 1479 1480 1480 1480 1479 1478 1480 1481 1482 1484 1485 1487 1488 1490 1493 1496 1498 1501 1504 1506 1509 1511 1514 1517 1519
1499 1497 1495 1493 1492 1490 1488 1486 1484 1483 1481 1480 1479 1478 1477 1476 1476 1476 1476 1476 1476 1476 1475 1474 1475 1476 1477 1478 1479 1481 1482 1484 1486 1489 1492 1494 1497 1500 1503 1506 1508 1511 1514
1497 1496 1494 1492 1490 1488 1486 1485 1483 1481 1479 1478 1476 1475 1474 1474 1473 1472 1472 1472 1472 1472 1472 1470 1471 1471 1472 1473 1474 1475 1476 1478 1480 1483 1485 1488 1491 1494 1497 1500 1502 1505 1508
1496 1494 1492 1491 1489 1487 1485 1483 1481 1479 1477 1476 1474 1473 1472 1471 1470 1469 1469 1469 1468 1468 1468 1467 1466 1467 1467 1468 1468 1469 1470 1472 1474 1476 1479 1481 1484 1487 1490 1493 1496 1498 1501
1494 1493 1491 1489 1487 1485 1483 1481 1479 1477 1475 1474 1472 1471 1469 1468 1467 1467 1466 1466 1465 1465 1464 1463 1462 1462 1462 1463 1463 1464 1465 1466 1468 1470 1472 1474 1477 1479 1482 1485 1488 1491 1494
1493 1492 1490 1488 1486 1483 1481 1479 1477 1475 1473 1472 1470 1469 1467 1466 1465 1464 1463 1463 1462 1461 1460 1459 1459 1458 1458 1458 1459 1459 1460 1461 1462 1464 1465 1467 1469 1472 1474 1477 1480 1483 1487
1493 1491 1489 1487 1485 1482 1480 1478 1476 1474 1472 1470 1469 1467 1466 1464 1463 1462 1461 1460 1459 1458 1457 1456 1455 1454 1454 1454 1454 1454 1455 1455 1456 1458 1460 1461 1462 1464 1466 1470 1472 1475 1479
1491 1489 1487 1485 1483 1481 1479 1477 1475 1473 1471 1469 1467 1465 1464 1462 1461 1460 1458 1457 1456 1455 1454 1453 1452 1451 1450 1450 1450 1450 1450 1450 1450 1452 1454 1454 1456 1457 1460 1462 1465 1468 1471
1489 1488 1486 1484 1482 1480 1478 1475 1473 1471 1469 1467 1465 1463 1462 1460 1459 1457 1456 1455 1453 1452 1451 1449 1448 1447 1446 1445 1445 1445 1445 1445 1445 1446 1448 1448 1449 1450 1453 1455 1457 1460 1462
1487 1485 1483 1482 1479 1477 1476 1473 1472 1469 1468 1466 1463 1461 1459 1458 1456 1455 1453 1451 1450 1449 1447 1446 1444 1443 1442 1441 1440 1440 1440 1440 1439 1440 1442 1442 1443 1444 1446 1447 1450 1452 1455
1484 1482 1481 1479 1477 1475 1473 1471 1469 1467 1465 1463 1462 1459 1457 1455 1454 1452 1450 1448 1446 1445 1443 1441 1440 1439 1437 1436 1435 1435 1435 1435 1435 1434 1435 1437 1437 1439 1440 1440 1443 1444 1447